Weather History for Klawock, AK

Change the Weather History Date:

Saturday, November 12, 2011

  Actual Average Record
Temperature  
Mean Temperature 40 °F -  
Max Temperature 45 °F 43 °F 52 °F (2002)
Min Temperature 35 °F 34 °F 30 °F (1998)
Degree Days  
Heating Degree Days 25    
Moisture  
Dew Point 37 °F    
Average Humidity 88    
Maximum Humidity 93    
Minimum Humidity 74    
Precipitation  
Precipitation 0.76 in - - ()
Sea Level Pressure  
Sea Level Pressure 29.14 in    
Wind  
Wind Speed 10 mph (SW)    
Max Wind Speed 24 mph    
Max Gust Speed 45 mph    
Visibility 6 miles    
Events Rain    
Averages and records for this station are not official NWS values.
T = Trace of Precipitation, MM = Missing Value Source: NWS Daily Summary

Daily Weather History Graph

Daily Weather History Graph

Search for Another Location

Airport:

Trip Planner

Search our weather history database for the weather conditions in past years. The results will help you decide how hot, cold, wet, or windy it might be!

Date:

Astronomy

Nov. 12, 2011 Rise Set
Actual Time 7:20 AM AKST 3:51 PM AKST
Civil Twilight 6:39 AM AKST 4:32 PM AKST
Nautical Twilight 5:54 AM AKST 5:17 PM AKST
Astronomical Twilight 5:11 AM AKST 6:00 PM AKST
Moon 4:51 PM AKST (11/12) 9:31 AM AKST (11/12)
Length of Visible Light 9h 53m
Length of Day
8h 30m
Waning Gibbous, 96% of the Moon is Illuminated
Nov 12
Waning Gibbous
Nov 18
Last Quarter
Nov 24
New
Dec 2
First Quarter
Dec 10
Full

Hourly Weather History & Observations

Time (AKST) Temp. Windchill Dew Point Humidity Pressure Visibility Wind Dir Wind Speed Gust Speed Precip Events Conditions
12:53 AM 36.0 °F 29.6 °F 34.0 °F 93% 29.34 in 6.0 mi South 8.1 mph - 0.08 in Rain Light Rain
1:53 AM 36.0 °F 31.1 °F 34.0 °F 93% 29.29 in 5.0 mi Variable 5.8 mph - 0.09 in Rain Rain
3:20 AM 35.6 °F 28.6 °F 33.8 °F 93% 29.12 in 5.0 mi SSE 9.2 mph 19.6 mph 0.03 in Rain Light Rain
3:53 AM 37.0 °F 30.4 °F 34.0 °F 89% 29.10 in 6.0 mi South 9.2 mph 20.7 mph 0.06 in Rain Light Rain
4:53 AM 37.9 °F 33.5 °F 35.1 °F 89% 29.03 in 7.0 mi Variable 5.8 mph 25.3 mph 0.02 in Rain Light Rain
5:05 AM 37.4 °F 29.8 °F 35.6 °F 93% 29.02 in 9.0 mi South 11.5 mph 25.3 mph 0.00 in Rain Light Rain
5:53 AM 39.0 °F 33.4 °F 36.0 °F 89% 29.00 in 10.0 mi South 8.1 mph 19.6 mph 0.00 in   Overcast
6:41 AM 39.2 °F 33.6 °F 37.4 °F 93% 29.02 in 2.5 mi SSW 8.1 mph 24.2 mph 0.03 in Rain Rain
6:47 AM 39.2 °F 33.6 °F 37.4 °F 93% 29.02 in 3.0 mi SSW 8.1 mph 19.6 mph 0.04 in Rain Light Rain
6:53 AM 39.9 °F 34.5 °F 37.9 °F 93% 29.03 in 4.0 mi SSW 8.1 mph 24.2 mph 0.05 in Rain Light Rain
7:04 AM 39.2 °F 33.0 °F 37.4 °F 93% 29.03 in 5.0 mi South 9.2 mph 18.4 mph 0.02 in Rain Rain
7:53 AM 43.0 °F 38.2 °F 41.0 °F 93% 29.04 in 9.0 mi South 8.1 mph 20.7 mph 0.02 in Rain Light Rain
8:00 AM 42.8 °F 37.5 °F 39.2 °F 87% 29.04 in 10.0 mi SSW 9.2 mph 17.3 mph 0.01 in Rain Light Rain
8:17 AM 42.8 °F 35.1 °F 39.2 °F 87% 29.06 in 2.0 mi SW 16.1 mph 29.9 mph 0.03 in Rain Light Rain
8:25 AM 42.8 °F 36.6 °F 39.2 °F 87% 29.06 in 10.0 mi SSW 11.5 mph 27.6 mph 0.03 in Rain Light Rain
8:53 AM 43.0 °F 40.3 °F 39.9 °F 89% 29.06 in 10.0 mi South 4.6 mph - 0.03 in Rain Light Rain
9:05 AM 42.8 °F 34.8 °F 39.2 °F 87% 29.07 in 1.8 mi West 17.3 mph 25.3 mph 0.02 in Rain Heavy Rain
9:14 AM 41.0 °F 35.2 °F 39.2 °F 93% 29.06 in 3.0 mi SSW 9.2 mph 24.2 mph 0.03 in Rain Light Rain
9:53 AM 44.1 °F 37.4 °F 39.0 °F 82% 29.05 in 10.0 mi SSW 13.8 mph 20.7 mph 0.03 in Rain Light Rain
10:03 AM 42.8 °F 33.8 °F 39.2 °F 87% 29.06 in 1.8 mi West 21.9 mph 33.4 mph 0.04 in Rain Heavy Rain
10:12 AM 42.8 °F 37.0 °F 39.2 °F 87% 29.05 in 3.0 mi SSW 10.4 mph 33.4 mph 0.04 in Rain Light Rain
10:31 AM 42.8 °F 36.6 °F 39.2 °F 87% 29.06 in 3.0 mi SW 11.5 mph 23.0 mph 0.08 in Rain Light Rain
10:42 AM 42.8 °F 36.6 °F 39.2 °F 87% 29.06 in 3.0 mi SW 11.5 mph 29.9 mph 0.10 in Rain Light Rain
10:53 AM 42.1 °F 33.6 °F 39.9 °F 92% 29.08 in 4.0 mi WSW 18.4 mph 28.8 mph 0.10 in Rain Rain
11:53 AM 41.0 °F 31.1 °F 39.0 °F 93% 29.12 in 4.0 mi West 23.0 mph 41.4 mph 0.03 in Rain Rain
12:07 PM 41.0 °F 33.9 °F 39.2 °F 93% 29.11 in 10.0 mi SW 12.7 mph 24.2 mph 0.01 in   Overcast
12:53 PM 43.0 °F 38.2 °F 39.0 °F 86% 29.11 in 9.0 mi WSW 8.1 mph 33.4 mph 0.01 in Rain Light Rain
1:53 PM - - - N/A% 29.14 in - West 17.3 mph 38.0 mph 0.02 in   Unknown
2:53 PM 45.0 °F 36.2 °F 37.0 °F 74% 29.17 in 8.0 mi West 24.2 mph 39.1 mph N/A   Overcast
3:53 PM 44.1 °F 36.8 °F 37.9 °F 79% 29.19 in 9.0 mi WSW 16.1 mph 44.9 mph 0.00 in Rain Light Rain
4:53 PM 44.1 °F 37.4 °F 37.0 °F 76% 29.23 in 7.0 mi West 13.8 mph 29.9 mph 0.00 in Rain Light Rain
5:42 PM 41.0 °F 35.8 °F 37.4 °F 87% 29.26 in 6.0 mi WSW 8.1 mph 24.2 mph 0.03 in Rain Light Rain
5:53 PM 39.9 °F 33.4 °F 37.0 °F 89% 29.28 in 2.5 mi WNW 10.4 mph 17.3 mph 0.09 in Rain Heavy Rain
6:04 PM 39.2 °F - 35.6 °F 87% 29.29 in 6.0 mi Calm Calm - 0.01 in Rain Light Rain
6:38 PM 41.0 °F 34.3 °F 37.4 °F 87% 29.30 in 7.0 mi West 11.5 mph 18.4 mph 0.06 in Rain Light Rain
6:53 PM 39.9 °F 35.1 °F 37.0 °F 89% 29.30 in 10.0 mi Variable 6.9 mph - 0.06 in   Overcast
7:53 PM 41.0 °F 33.9 °F 37.0 °F 86% 29.31 in 10.0 mi WSW 12.7 mph 21.9 mph 0.01 in   Overcast
8:53 PM 43.0 °F 36.8 °F 36.0 °F 76% 29.33 in 10.0 mi WSW 11.5 mph 32.2 mph 0.00 in Rain Light Rain
9:53 PM 39.0 °F 35.7 °F 35.1 °F 86% 29.34 in 10.0 mi SSW 4.6 mph - 0.01 in   Overcast
10:53 PM 39.0 °F 32.3 °F 36.0 °F 89% 29.34 in 10.0 mi SW 10.4 mph 19.6 mph 0.03 in Rain Light Rain
11:53 PM 39.0 °F 30.3 °F 36.0 °F 89% 29.37 in 5.0 mi West 16.1 mph 25.3 mph 0.02 in Rain Rain